Flag for Spain Weather past 2 weeks in Bilbao, Spain

Now
61 °F

Sunny.


Feels Like: 61 °F
Forecast: 51 / 62 °F
Wind: No wind

Location: Bilbao / Sondica

Current Time: Mar 29, 2015 at 7:44:26 PM

Latest Report: Mar 29, 2015 at 7:00 PM


Visibility: 10 mi

Pressure: 30.30 "Hg

Humidity: 63%

Dew point: 48 °F

Location of BilbaoLocation

Historic Weather in Bilbao — Graph

°F

Bilbao temperature yesterday

Maximum temperature yesterday: 59 °F (at 1:00 PM)
Minimum temperature yesterday: 52 °F (at 10:00 PM)
Average temperature yesterday: 55 °F

Past Weeks' High & Low Weather Summary

 TemperatureHumidityPressure
High68 °F (Mar 17, 4:00 PM)100% (Mar 16, 5:00 AM)30.45 "Hg (Mar 16, 5:00 AM)
Low41 °F (Mar 15, 11:00 PM)33% (Mar 17, 4:00 PM)29.80 "Hg (Mar 23, 5:00 PM)
Average51 °F82%30.11 "Hg
* Reported Mar 14 5:00 PM — Mar 29 6:30 PM, Bilbao, Weather by CustomWeather, © 2015

Note: Actual official high and low records may vary slightly from our data, if they occured in-between our weather recording intervals... More about our weather records

Advertising

Bilbao weather history for previous 24 hours

 ConditionsComfort  
Time TempWeatherWind HumidityBarometerVisibility
6:30 PM
Sun, Mar 29
61 °FPassing clouds.8 mph68%30.33 "HgN/A
6:00 PM61 °FPassing clouds.9 mph68%30.33 "HgN/A
5:30 PM61 °FPassing clouds.13 mph68%30.33 "HgN/A
5:00 PM64 °FPassing clouds.12 mph60%30.30 "HgN/A
4:30 PM64 °FPassing clouds.5 mph60%30.30 "HgN/A
4:00 PM63 °FPassing clouds.6 mph68%30.30 "HgN/A
3:30 PM63 °FPassing clouds.3 mph68%30.33 "HgN/A
3:00 PM63 °FPassing clouds.7 mph68%30.33 "HgN/A
2:30 PM63 °FSunny.10 mph73%30.33 "Hg10 mi
2:00 PM63 °FSunny.12 mph73%30.36 "Hg10 mi
1:30 PM63 °FSunny.13 mph68%30.36 "Hg10 mi
1:00 PM64 °FPassing clouds.2 mph64%30.36 "HgN/A
12:30 PM63 °FPassing clouds.2 mph64%30.33 "HgN/A
12:00 PM61 °FPassing clouds.5 mph72%30.33 "HgN/A
11:30 AM59 °FScattered clouds.1 mph77%30.36 "HgN/A
11:00 AM59 °FBroken clouds.2 mph77%30.36 "HgN/A
10:30 AM57 °FBroken clouds.3 mph82%30.36 "HgN/A
10:00 AM57 °FPartly sunny.8 mph82%30.39 "HgN/A
9:30 AM55 °FPartly sunny.8 mph88%30.39 "HgN/A
9:00 AM55 °FDrizzle. Partly sunny.3 mph88%30.39 "HgN/A
8:30 AM55 °FPassing clouds.No wind88%30.36 "HgN/A
8:00 AM54 °FPassing clouds.1 mph94%30.36 "Hg6 mi
7:30 AM54 °FPassing clouds.No wind94%30.36 "Hg4 mi
7:00 AM52 °FPassing clouds.2 mph100%30.36 "Hg5 mi
6:30 AM52 °FPassing clouds.1 mph100%30.36 "HgN/A
6:00 AM52 °FPassing clouds.No wind94%30.36 "HgN/A
5:30 AM52 °FPassing clouds.No wind94%30.36 "HgN/A
5:00 AM52 °FPassing clouds.No wind94%30.36 "HgN/A
11:30 PM
Sat, Mar 28
52 °FPassing clouds.2 mph94%30.39 "HgN/A
11:00 PM52 °FPassing clouds.1 mph94%30.39 "HgN/A
10:30 PM52 °FPassing clouds.1 mph94%30.42 "HgN/A
10:00 PM52 °FPassing clouds.3 mph94%30.42 "HgN/A
9:30 PM54 °FPassing clouds.5 mph88%30.42 "HgN/A
9:00 PM54 °FPassing clouds.3 mph88%30.42 "HgN/A
8:30 PM55 °FPassing clouds.1 mph82%30.42 "HgN/A
8:00 PM55 °FPassing clouds.No wind82%30.42 "HgN/A
7:30 PM55 °FScattered clouds.No wind82%30.42 "HgN/A
7:00 PM57 °FPassing clouds.1 mph77%30.42 "HgN/A
Weather by CustomWeather, © 2015

See weather overviewHow to use our weather pages